COSMOS 1736

Satellite information

Favourite Embed

Satellite Type and Status

PAYLOADIN ORBIT

Key statistics

Satellite COSMOS 1736 at a glance.

Uptime

14512

Days in orbit

Revolutions

≈ 13.8

Per day

Orbit

LEO

Low Earth Orbit

Inclination

65.0

Latest

Satellite identification and parameters

Extended collection of information and parameters for COSMOS 1736.

Object identification

Identified? True

Debris? False

Object name: COSMOS 1736

International designator: 1986-024A

Object number (NORAD): 16647

Object ID (CCSDS): 16647

Country: COMMONWEALTH OF INDEPENDENT STATES (CIS)

Current information (Y/N): Y

RCS size: LARGE

Orbital parameters

Period: 104.382 minutes

Inclination: 64.9894 deg

SMA: 7343.605 km

Apoapsis: 1009.334 km

Periapsis: 921.606 km

RAAN: 51.3149 deg

Eccentricy: 0.00597315

Argument of periapsis: 270.2117 deg

Mean anomaly: 150.7144 deg

Mean motion: 13.7955429 rev/day

Mean motion (dot): -0.00000057 rev/day2

B* drag term: 0.000029301129 1/REarth

Two-line elements (TLE)

Creation date: Dec. 12, 2025, 10:14 a.m.

Reference frame: TEME

Reference center: EARTH

Epoch: Dec. 12, 2025, 6:37 a.m. UTC

TLE line 0: 0 COSMOS 1736

TLE line 1: 1 16647U 86024A 25346.27606053 -.00000057 00000-0 29301-4 0 9995

TLE line 2: 2 16647 64.9894 51.3149 0059732 270.2117 150.7144 13.79554290 2622

Live tracking on map

Real-time ground track for satellite COSMOS 1736.

In-orbit conjunctions

A list of the most updated potential collisions computed for object COSMOS 1736.

Target Orbit TCA Probability of collision Miss distance Type
FENGYUN 1C DEB SSO 2025-02-04 02:39:54 0.0001038423 803.0 (m) DEBRIS
FENGYUN 1C DEB SSO 2024-09-10 16:58:57 0.0002045458 500.0 (m) DEBRIS

Associated space launch

Active radar satellite for ocean surveillance powered by a nuclear reactor.

COSMOS 1736 was lifted into orbit during the mission ‘Tsiklon-2 | US-A 28’, on board a Tsiklon-2 space rocket.

The launch took place on March 21, 1986, 10:05 a.m. from 90.

For more information about the launch, click the button.

Launch to space Tsiklon-2 | US-A 28
Tsiklon-2 | US-A 28

Agency: N/A

Status: Launch Successful

Launch date: March 21, 1986, 10:05 a.m. UTC

Rocket: Tsiklon-2

Launch pad: 90

Location: Baikonur Cosmodrome, Republic of Kazakhstan

...

Latest news about this satellite

There are no fresh news available about this satellite. Check back as we update our databases every day.


Newsletter sign-up

Weekly statistics, charts and insights to help you stay on top of the space industry.